Tracking 18844 objects as of 21-Nov-2017
HD Live streaming from Space Station
objects crossing your sky now

DASH/VEP 3

Track DASH/VEP 3 now!
DASH/VEP 3 is classified as:


NORAD ID: 27368
Int'l Code: 2002-003B
Perigee: 401.4 km
Apogee: 34,931.7 km
Inclination: 28.8 °
Period: 618.2 minutes
Semi major axis: 24037 km
RCS: 13.4031 m2 (large)
Launch date: February 4, 2002
Source: Japan (JPN)
Launch site: TANEGASHIMA SPACE CENTER (TNSTA)
aabbcc
Your satellite tracking list
Your tracking list is empty




NASA's NSSDC Master Catalog

Two Line Element Set (TLE):
1 27368U 02003B   17323.95740189 +.00000076 +00000-0 +52844-3 0  9999
2 27368 028.8366 312.3986 7182588 261.3458 018.7390 02.32952879132664
Source of the keplerian elements: AFSPC